CAPE
0 0 0 0 0 0 0 0 0 0 0 0 0 0 0 0 0 0 0 0 0 0 0 0 0 0 0 0 0 0 0 0
0 0 0 0 0 0 0 0 0 0 0 0 0 0 0 0 0 0 0 0 0 0 0 0 0 0 0 0 0 0 0 0
0 0 0 0 0 0 0 0 0 0 0 0 0 0 0 0 0 0 0 0 0 0 0 0 0 0 0 0 0 0 0 0
0 0 0 0 0 0 0 0 0 0 0 0 0 0 0 0 0 0 0 0 0 0 0 0 0 0 0 0 0 0 0 0
0 0 0 0 0 0 0 0 0 0 0 0 0 0 0 0 0 0 0 0 0 0 0 0 0 0 0 0 0 0 0 0
0 0 0 0 0 0 0 0 0 0 0 0 0 0 0 0 0 0 0 0 0 0 0 0 0 0 0 0 0 0 0 0
0 0 0 0 0 0 0 0 0 0 0 0 0 0 0 0 0 0 0 0 0 0 0 0 0 0 0 0 0 0 0 0
0 0 0 0 0 0 0 0 0 0 0 0 0 0 0 0 0 0 0 0 0 0 0 0 0 0 0 0 0 0 0 0
0 0 0 0 0 0 0 0 0 0 0 0 0 0 0 0 0 0 0 0 0 0 0 0 0 0 0 0 0 0 0 0
0 0 0 0 0 0 0 0 0 0 0 0 0 0 0 0 0 0 0 0 0 0 0 0 0 0 0 0 0 0 0 0
0 0 0 0 0 0 0 0 0 0 0 0 0 0 0 0 0 0 0 0 0 0 0 0 0 0 0 0 0 0 0 0
0 0 0 0 0 0 0 0 0 0 0 0 0 0 0 0 0 0 0 0 0 0 0 0 0 0 0 0 0 0 0 0
0 0 0 0 0 0 0 0 0 0 0 0 0 0 0 0 0 0 0 0 0 0 0 0 0 0 0 0 0 0 0 0
0 0 0 0 0 0 0 0 0 0 0 0 0 0 0 0 0 0 0 0 0 0 0 0 0 0 0 0 0 0 0 0
0 0 0 0 0 0 0 0 0 0 0 0 0 0 0 0 0 0 0 0 0 0 0 0 0 0 0 0 0 0 0 0
0 0 0 0 0 0 0 0 0 0 0 0 0 0 0 0 0 0 0 0 0 0 0 0 0 0 0 0 0 0 0 0
0 0 0 0 0 0 0 0 0 0 0 0 0 0 0 0 0 0 0 0 0 0 0 0 0 0 3 9 7 0 0 0
0 0 0 0 0 0 0 0 0 0 0 0 0 0 0 0 0 0 0 0 0 0 0 0 0 0 4 11 13 0 0 0
0 0 0 0 0 0 0 0 0 0 0 0 0 0 0 0 0 0 0 0 0 0 0 0 0 0 4 12 17 0 0 0
CIN
0 0 0 0 0 0 0 0 0 0 0 0 0 0 0 0 0 0 0 0 0 0 0 0 0 0 0 0 0 0 0 0
0 0 0 0 0 0 0 0 0 0 0 0 0 0 0 0 0 0 0 0 0 0 0 0 0 0 0 0 0 0 0 0
0 0 0 0 0 0 0 0 0 0 0 0 0 0 0 0 0 0 0 0 0 0 0 0 0 0 0 0 0 0 0 0
0 0 0 0 0 0 0 0 0 0 0 0 0 0 0 0 0 0 0 0 0 0 0 0 0 0 0 0 0 0 0 0
0 0 0 0 0 0 0 0 0 0 0 0 0 0 0 0 0 0 0 0 0 0 0 0 0 0 0 0 0 0 0 0
0 0 0 0 0 0 0 0 0 0 0 0 0 0 0 0 0 0 0 0 0 0 0 0 0 0 0 0 0 0 0 0
0 0 0 0 0 0 0 0 0 0 0 0 0 0 0 0 0 0 0 0 0 0 0 0 0 0 0 0 0 0 0 0
0 0 0 0 0 0 0 0 0 0 0 0 0 0 0 0 0 0 0 0 0 0 0 0 0 0 0 0 0 0 0 0
0 0 0 0 0 0 0 0 0 0 0 0 0 0 0 0 0 0 0 0 0 0 0 0 0 0 0 0 0 0 0 0
0 0 0 0 0 0 0 0 0 0 0 0 0 0 0 0 0 0 0 0 0 0 0 0 0 0 0 0 0 0 0 0
0 0 0 0 0 0 0 0 0 0 0 0 0 0 0 0 0 0 0 0 0 0 0 0 0 0 0 0 0 0 0 0
0 0 0 0 0 0 0 0 0 0 0 0 0 0 0 0 0 0 0 0 0 0 0 0 0 0 0 0 0 0 0 0
0 0 0 0 0 0 0 0 0 0 0 0 0 0 0 0 0 0 0 0 0 0 0 0 0 0 0 0 0 0 0 0
0 0 0 0 0 0 0 0 0 0 0 0 0 0 0 0 0 0 0 0 0 0 0 0 0 0 0 0 0 0 0 0
0 0 0 0 0 0 0 0 0 0 0 0 0 0 0 0 0 0 0 0 0 0 0 0 0 0 0 0 0 0 0 0
0 0 0 0 0 0 0 0 0 0 0 0 0 0 0 0 0 0 0 0 0 0 0 0 0 0 0 0 0 0 0 0
0 0 0 0 0 0 0 0 0 0 0 0 0 0 0 0 0 0 0 0 0 0 0 0 0 0 0 0 -2 0 0 0
0 0 0 0 0 0 0 0 0 0 0 0 0 0 0 0 0 0 0 0 0 0 0 0 0 0 0 0 0 0 0 0
0 0 0 0 0 0 0 0 0 0 0 0 0 0 0 0 0 0 0 0 0 0 0 0 0 0 0 0 0 0 0 0
Wind_Speed
18 18 16 14 12 11 11 8 9 7 4 4 4 3 4 4 3 2 0 1 4 3 3 5 5 4 5 4 3 3 2 4
17 15 13 12 10 11 9 11 10 7 5 4 3 4 4 4 4 2 3 2 1 2 3 4 4 4 4 4 3 3 3 4
14 12 11 10 8 8 10 11 9 6 4 3 2 3 2 1 2 5 6 4 4 2 3 4 5 4 6 5 3 3 2 3
11 11 9 8 10 8 9 7 7 6 6 4 4 3 3 4 4 4 5 6 6 3 3 4 5 3 4 4 3 4 2 2
12 10 8 8 7 7 8 7 7 6 7 5 6 3 3 3 2 3 5 6 6 6 5 5 6 4 6 4 3 1 0 2
11 9 8 7 7 6 5 6 6 6 6 6 4 5 2 2 3 6 7 6 6 6 6 6 6 4 4 4 4 4 1 1
9 7 8 7 6 5 4 5 4 6 5 6 6 6 5 5 5 4 4 4 4 6 6 5 5 5 4 3 2 3 2 2
9 9 7 6 5 3 3 6 5 4 6 6 6 5 6 6 5 4 5 4 3 6 5 6 4 5 5 4 4 3 3 3
8 8 7 6 4 4 5 5 3 4 5 5 5 6 4 3 4 3 4 3 4 5 6 6 6 6 5 4 3 3 4 5
10 8 6 5 3 5 4 4 2 3 4 5 6 6 6 4 6 4 3 5 5 6 7 6 7 6 5 5 2 5 5 6
9 6 6 3 3 4 6 4 2 4 5 5 4 5 5 5 5 6 7 6 6 7 7 7 7 6 5 1 4 6 6 8
8 6 5 4 4 5 5 3 6 6 5 4 5 5 5 6 6 6 6 7 7 7 7 7 7 6 3 4 6 7 10 11
8 6 6 4 4 5 4 4 6 5 3 4 5 6 6 6 7 7 7 7 8 7 7 7 6 5 3 6 8 10 12 12
7 6 6 4 3 4 3 5 5 4 4 6 7 7 6 7 7 7 7 8 10 10 8 7 6 4 5 6 7 12 12 10
8 6 5 3 3 4 5 5 5 5 6 6 6 7 6 6 7 8 9 9 9 9 10 8 5 5 6 9 11 11 12 11
9 7 3 3 4 5 5 5 6 4 6 6 6 6 6 7 9 9 9 10 10 9 10 7 6 5 8 14 12 11 12 12
9 6 5 3 5 4 5 6 5 5 6 6 6 6 7 7 7 9 10 10 10 9 10 7 7 7 23 25 22 12 12 11
6 6 4 4 5 5 6 5 5 6 6 5 6 6 6 7 7 10 10 10 9 10 10 10 9 10 25 26 27 12 12 10
6 5 4 4 5 7 6 5 6 6 6 6 7 6 6 6 7 8 8 6 7 9 10 10 10 11 24 27 27 14 11 13
Wind_Direction
92 88 83 78 78 74 72 63 46 47 39 28 21 4 356 346 62 89 1 58 68 64 34 13 5 358 347 345 325 327 299 328
81 80 80 79 63 68 60 59 41 40 25 6 356 334 348 6 42 323 302 354 34 58 33 1 350 344 324 317 304 323 309 339
81 79 73 70 73 65 62 57 44 35 21 353 357 346 354 9 349 356 353 334 324 35 15 340 340 336 338 326 331 316 303 15
96 88 78 72 66 63 62 52 40 31 26 19 1 15 11 5 1 354 355 16 27 62 345 341 335 340 326 311 309 355 320 312
108 104 90 90 78 66 59 48 36 31 18 33 42 30 9 328 314 320 354 17 10 10 353 347 339 339 340 326 352 341 31 306
114 111 110 89 80 76 64 47 34 18 24 39 48 38 359 311 343 2 360 355 360 353 350 350 352 343 345 5 9 358 297 259
111 111 99 90 77 70 58 41 14 18 36 40 45 43 7 4 351 358 346 339 335 348 345 344 337 334 343 315 315 332 320 264
129 112 104 95 86 58 51 31 26 30 59 46 35 22 12 4 357 346 349 334 322 321 329 332 321 320 317 292 308 307 294 277
119 119 115 106 93 57 51 36 54 54 60 40 22 21 20 8 352 336 334 317 306 304 322 318 317 321 316 315 283 288 269 275
117 110 111 107 80 70 55 57 72 42 50 36 24 20 25 5 351 346 316 308 306 317 309 306 308 305 324 308 317 296 282 280
117 124 125 119 69 53 41 88 54 37 55 37 29 11 14 359 349 336 325 309 306 311 305 305 301 304 319 7 310 294 289 301
136 134 123 96 50 50 95 66 49 49 70 40 18 4 0 348 337 325 317 308 308 306 302 303 299 312 329 336 310 300 305 306
141 130 121 80 57 69 90 61 54 75 71 36 8 7 355 345 334 326 320 313 310 309 311 305 316 332 6 324 310 315 314 310
129 116 104 85 48 46 52 54 68 71 51 34 13 2 355 339 332 327 321 324 328 329 331 326 336 28 338 313 307 317 313 311
112 113 101 53 56 9 79 63 69 52 47 34 15 0 349 339 332 337 343 341 342 342 344 350 8 358 328 334 332 325 323 317
128 125 117 116 48 21 76 69 60 52 43 28 3 353 348 348 352 355 351 351 351 349 0 355 351 334 351 347 339 332 323 319
130 125 120 103 48 54 84 64 53 52 32 21 359 351 359 357 355 360 358 354 348 351 356 345 335 329 349 349 348 336 327 317
124 120 149 81 29 72 77 70 50 38 28 7 351 356 11 359 3 10 1 348 346 350 349 350 340 340 352 348 348 337 328 318
120 132 92 46 64 84 86 56 42 36 14 358 348 357 20 2 14 8 355 343 347 348 346 345 341 344 349 350 352 337 330 331